Regional Weather Roundup
Issued by NWS

Home | Current Version | Previous Version | Graphics & Text | Print | Product List | Glossary Off
Versions: 1 2 3 4 5 6 7 8 9 10 11 12 13 14 15 16 17 18 19 20 21 22 23 24 25 26 27 28 29 30 31 32 33 34 35 36 37 38 39 40 41 42 43 44 45 46 47 48 49 50

000
ASUS43 KMPX 301810
RWRMN
WEATHER ROUNDUP FOR MINNESOTA
NATIONAL WEATHER SERVICE TWIN CITIES/CHANHASSEN MN
100 PM CDT THU JUL 30 2015


NOTE: "FAIR" INDICATES FEW OR NO CLOUDS BELOW 12,000 FEET WITH NO
SIGNIFICANT WEATHER AND/OR OBSTRUCTIONS TO VISIBILITY. N/A MEANS
CURRENT SKY AND/OR WEATHER CONDITIONS ARE NOT AVAILABLE.

MNZ060>063-068>070-301900-
   Twin Cities Metro

CITY           SKY/WX    TMP DP  RH WIND       PRES   REMARKS
TWIN CITIES    MOSUNNY   82  56  40 W17       30.05S
6HR MIN TEMP:  65; 6HR MAX TEMP:  83;

ST PAUL        SUNNY     83  56  39 NW15G25   30.05S
CRYSTAL        SUNNY     83  55  38 NW21G28   30.04S
BLAINE         MOSUNNY   82  57  42 W18G24    30.05S
LAKEVILLE      SUNNY     79  55  44 W13G21    30.07S
EDEN PRAIRIE   SUNNY     83  57  41 W15G23    30.06S
6HR MIN TEMP:  62; 6HR MAX TEMP:  83;

SOUTH ST PAUL  SUNNY     83  51  33 NW15G28   30.05S
LAKE ELMO      FAIR      81  59  47 NW15G22   30.06S
$$
MNZ001>005-007-008-013>017-022>024-027-028-301900-
   Northwest Minnesota

CITY           SKY/WX    TMP DP  RH WIND       PRES   REMARKS
BEMIDJI        MOSUNNY   78  55  45 W18G30    30.00S
HALLOCK        SUNNY     79  55  44 NW17G25   29.96S
ROSEAU         SUNNY     77  61  57 W14G24    29.94S
WARROAD        MOSUNNY   75  63  64 W18G24    29.93S
THIEF RVR FALL MOSUNNY  N/A N/A N/A W17       29.99F
CROOKSTON      SUNNY     79  54  41 NW18G25   30.01S
FOSSTON        SUNNY     75  55  50 W15G23    30.02S
DETROIT LAKES  SUNNY     77  57  50 NW17G23   30.07S
MOORHEAD       SUNNY     79  57  47 W16       30.05F
PARK RAPIDS    SUNNY     80  55  42 NW15G25   30.03F
MAHNOMEN       FAIR      76  58  52 W16G23    30.03S
$$
MNZ006-009>011-018-025>026-301900-
   North Central Minnesota

CITY           SKY/WX    TMP DP  RH WIND       PRES   REMARKS
BAUDETTE       SUNNY     76  58  53 NW16      29.92S
FLAG ISLAND    MOSUNNY   73  55  53 NW20G26   29.88F
INTL FALLS     MOSUNNY   77  61  57 W14G20    29.90F
6HR MIN TEMP:  57; 6HR MAX TEMP:  77;

WASKISH        SUNNY     75  61  60 W15       29.95F
BIG FORK       MOSUNNY   77  55  47 W10G23    29.96S
LONGVILLE      SUNNY     77  55  47 W14G24    30.01S
GRAND RAPIDS   MOSUNNY   79  54  41 W14G28    29.98S
CRANE LAKE     MOSUNNY   73  54  49 W7        29.92F
ORR            MOSUNNY   72  57  60 CALM      29.90F
COOK           MOSUNNY   75  61  60 W9        29.93S
WALKER         FAIR      76  55  48 W16       30.00F
$$
MNZ012-019>021-037-301900-
   Northeast Minnesota

CITY           SKY/WX    TMP DP  RH WIND       PRES   REMARKS
DULUTH         PTSUNNY   79  53  40 NW23G35   29.95F
6HR MIN TEMP:  64; 6HR MAX TEMP:  80;

ELY            PTSUNNY   73  54  49 W13       29.92S
HIBBING        PTSUNNY   78  56  46 W16G25    29.95S
EVELETH        MOSUNNY   70  55  60 NW3       29.96S
DULUTH HARBOR  MOSUNNY   81  57  44 W23G31    29.93S
TWO HARBORS    MOSUNNY   81  63  54 W10G20    29.91S THUNDER
SILVER BAY     TSTM      72  57  60 W6        29.91R
GRAND MARAIS     N/A     80  50  34 W8G18     29.85S
G MARAIS ARPRT MOSUNNY   72  46  40 W12G24    29.91S
$$
MNZ029>031-032-039>041-046>048-054>057-064-301900-
   West Central Minnesota

CITY           SKY/WX    TMP DP  RH WIND       PRES   REMARKS
FERGUS FALLS   SUNNY     79  57  47 NW12G18   30.07S
WHEATON        SUNNY     77  59  53 W9        30.11S
MORRIS         SUNNY     81  61  50 W12       30.09F
ALEXANDRIA     SUNNY     78  57  48 NW13      30.11S
ELBOW LAKE     FAIR      77  57  50 NW10G16   30.08F
WADENA         SUNNY     79  54  41 W13G25    30.06S
GLENWOOD       SUNNY     79  55  44 W15       30.10F
APPLETON       SUNNY     82  54  36 W12       30.10S
BENSON         SUNNY     82  52  34 N15       30.10S
ORTONVILLE     SUNNY     82  54  36 NW9       30.10F
MADISON        SUNNY     84  48  28 W8        30.11F
WILLMAR        FAIR      81  59  47 NW12      30.12S
$$
MNZ033>034-036-042>043-049>051-058-059-301900-
   Central Minnesota

CITY           SKY/WX    TMP DP  RH WIND       PRES   REMARKS
ST CLOUD       SUNNY     82  56  40 W16G25    30.06S
6HR MIN TEMP:  63; 6HR MAX TEMP:  82;

SAUK CENTRE    FAIR      78  56  47 NW13      30.09S
PAYNESVILLE    SUNNY     78  53  41 W13G22    30.09F
AITKIN         SUNNY     81  55  41 W8G18     29.99F
PINE RIVER     MOSUNNY   79  55  44 W15G22    30.05S
BRAINERD       MOSUNNY   80  53  39 W17       30.03S
STAPLES        SUNNY     79  54  41 W17G23    30.05S
LONG PRAIRIE   FAIR      79  55  44 W15       30.08S
LITTLE FALLS   SUNNY     79  50  36 W13G20    30.05F
LITCHFIELD     SUNNY     81  57  44 W14G20    30.10S
BUFFALO        SUNNY     80  54  39 W13G21    30.08S
MAPLE LAKE     SUNNY     81  61  50 NW9G21    30.08S
$$
MNZ037-044-045-052-053-301900-
   East Central Minnesota

CITY           SKY/WX    TMP DP  RH WIND       PRES   REMARKS
PRINCETON      SUNNY     82  57  42 W14G21    30.05S
MORA           SUNNY     77  54  44 NW15G24   30.04S
CAMBRIDGE      SUNNY     82  61  47 W16G23    30.02F
RUSH CITY      MOSUNNY   79  58  48 W12G18    30.03S
MOOSE LAKE     MOSUNNY   79  55  44 W14G24    29.97F
HINCKLEY       FAIR      79  61  53 W13G22    30.01S
CLOQUET        PTSUNNY   79  52  38 W13G24    29.97S
MCGREGOR       MOSUNNY   79  54  41 W14G20    29.99F
$$
MNZ071>073-080-081-089-090-097-098-301900-
   Southwest Minnesota

CITY           SKY/WX    TMP DP  RH WIND       PRES   REMARKS
MONTEVIDEO     SUNNY     84  59  42 N9        30.13S
GRANITE FALLS  SUNNY     81  59  46 W8        30.13F
CANBY          SUNNY     83  51  32 NW8       30.14S
MARSHALL       SUNNY     82  50  32 W9        30.15S
REDWOOD FALLS  SUNNY     83  55  38 W13       30.11S
OLIVIA         SUNNY     77  54  44 W12       30.11S
PIPESTONE      SUNNY     81  57  44 NW6       30.17S
WINDOM         SUNNY     82  59  44 NW8       30.15S
WORTHINGTON    SUNNY     81  61  50 NW5       30.16S
JACKSON        SUNNY     82  57  42 NW7       30.16R
TRACY          SUNNY     81  57  44 NW8       30.14F
SLAYTON        SUNNY     83  54  36 CALM      30.17S
$$
MNZ065>067-074>077-082>085-091>093-301900-
   South Central Minnesota

CITY           SKY/WX    TMP DP  RH WIND       PRES   REMARKS
MANKATO        SUNNY     82  55  39 NW14      30.10S
NEW ULM        SUNNY     82  52  34 NW13      30.11S
ST JAMES       SUNNY     82  61  47 W12       30.13F
FAIRMONT       SUNNY     81  57  44 NW13      30.13S
GLENCOE        SUNNY     81  60  47 W10G20    30.09S
FARIBAULT      SUNNY     81  61  50 W13G20    30.10S
OWATONNA       SUNNY     81  55  41 W16G26    30.11R
WASECA         SUNNY     79  59  50 W10G17    30.12S
ALBERT LEA     SUNNY     81  57  44 NW10G21   30.12S
$$
MNZ078>079-086>088-094>096-301900-
   Southeast Minnesota

CITY           SKY/WX    TMP DP  RH WIND       PRES   REMARKS
ROCHESTER      SUNNY     79  62  56 NW17      30.10F
6HR MIN TEMP:  62; 6HR MAX TEMP:  79;

RED WING       SUNNY     84  52  32 NW15G21   30.03S
STANTON        SUNNY     81  55  41 NW16G25   30.07R
DODGE CENTER   SUNNY     79  55  44 NW17G25   30.11R
WINONA         SUNNY     81  54  39 NW16G22   30.05S
AUSTIN         SUNNY     82  57  42 W15       30.11S
PRESTON        SUNNY     79  57  47 W15       30.11R
$$
ABBREVIATIONS USED IN REMARKS
   TC - TEMPERATURES IN CELSIUS
  WCI - WIND CHILL INDEX
   HX - HEAT INDEX
  VSB - VISIBILITY
$$


USA.gov is the U.S. government's official web portal to all federal, state and local government web resources and services.